Regional Weather Roundup
Issued by NWS Raleigh/Durham, NC

Home | Current Version | Previous Version | Text Only | Print | Product List | Glossary On
Versions: 1 2 3 4 5 6 7 8 9 10 11 12 13 14 15 16 17 18 19 20 21 22 23 24 25 26 27 28
000
ASUS42 KRAH 271710
RWRRAH
NORTH CAROLINA WEATHER ROUNDUP
NATIONAL WEATHER SERVICE RALEIGH NC
100 PM EDT SAT AUG 27 2016

NOTE: "FAIR" INDICATES FEW OR NO CLOUDS BELOW 12,000 FEET WITH NO
SIGNIFICANT WEATHER AND/OR OBSTRUCTIONS TO VISIBILITY.

NCZ001-053-055-056-065-067-271800-
WESTERN NORTH CAROLINA

CITY           SKY/WX    TMP DP  RH WIND       PRES   REMARKS
ASHEVILLE      MOSUNNY   85  67  54 SE6       30.23F
JEFFERSON      MOSUNNY   79  68  69 SE5       30.30S
MORGANTON      MOSUNNY   91  70  50 E5        30.21F HX  96
HICKORY        PTSUNNY   90  73  57 VRB3      30.16F HX  98
RUTHERFORDTON    N/A     91  71  51 E3        30.16F HX  97
MOUNT AIRY     SUNNY     89  77  66 SE7       30.20F HX 102
BOONE          MOSUNNY   78  67  67 SE5       30.30F
$$

NCZ021-022-025-041-071-084-088-271800-
CENTRAL NORTH CAROLINA

CITY           SKY/WX    TMP DP  RH WIND       PRES   REMARKS
CHARLOTTE      MOSUNNY   93  71  48 NE10      30.13F HX 100
GREENSBORO     MOSUNNY   91  73  55 VRB6      30.14F HX  99
WINSTON-SALEM  SUNNY     89  72  56 NE7       30.16F HX  96
RALEIGH-DURHAM MOSUNNY   94  70  45 E9        30.12F HX 100
FORT BRAGG     SUNNY     95  73  48 CALM      30.10F HX 103
FAYETTEVILLE   MOSUNNY   95  71  45 E7        30.10F HX 102
BURLINGTON     MOSUNNY   95  72  47 VRB5      30.13F HX 103
LAURINBURG     MOSUNNY   93  71  48 SE6       30.12F HX 100
$$

NCZ011-015-027-028-043-044-047-080-103-271800-
NORTHEASTERN NORTH CAROLINA

CITY           SKY/WX    TMP DP  RH WIND       PRES   REMARKS
ROCKY MT-WILSO SUNNY     92  75  57 VRB3      30.11F HX 103
GREENVILLE     MOSUNNY   95  73  49 SE5       30.12S HX 105
WASHINGTON     SUNNY     90  75  62 N3        30.10F HX 100
ELIZABETH CITY MOSUNNY   91  71  51 NE10      30.11S HX  97
MANTEO         SUNNY     86  75  69 E6        30.11S HX  95
CAPE HATTERAS  SUNNY     88  74  63 VRB3      30.11S HX  96
$$

NCZ078-087-090-091-093-098-101-271800-
SOUTHEASTERN NORTH CAROLINA

CITY           SKY/WX    TMP DP  RH WIND       PRES   REMARKS
LUMBERTON      MOSUNNY   91  71  51 SE9       30.10F HX  97
GOLDSBORO      SUNNY     92  75  57 VRB3      30.10F HX 102
KINSTON        SUNNY     91  73  55 E5        30.12F HX 100
KENANSVILLE    CLOUDY    88  75  66 CALM      30.11F HX  97
NEW BERN       SUNNY     91  75  59 NW6       30.11F HX 101
CHERRY POINT   SUNNY     91  75  59 VRB3      30.11F HX 101
BEAUFORT       MOSUNNY   89  76  65 E9        30.09F HX 100
JACKSONVILLE   MOSUNNY   91  74  57 E7        30.09F HX 100
WILMINGTON     SUNNY     89  73  59 E7        30.10F HX  97
$$





USA.gov is the U.S. government's official web portal to all federal, state and local government web resources and services.